2024/03/01 00:00:00,24.7,-0.6
2024/03/01 00:10:00,24.7,-0.9
2024/03/01 00:20:00,24.7,-0.9
2024/03/01 00:30:00,24.6,-0.9
2024/03/01 00:40:00,24.6,-1.1
2024/03/01 00:50:00,24.6,-1.0
2024/03/01 01:00:00,24.5,-0.6
2024/03/01 01:10:00,24.4,-0.8
2024/03/01 01:20:00,24.4,-0.4
2024/03/01 01:30:00,24.5,-0.7
2024/03/01 01:40:00,24.5,-0.8
2024/03/01 01:50:00,24.5,-0.7
2024/03/01 02:00:00,24.5,-0.7
2024/03/01 02:10:00,24.4,-0.5
2024/03/01 02:20:00,24.3,-1.0
2024/03/01 02:30:00,24.3,-0.8
2024/03/01 02:40:00,24.3,-0.6
2024/03/01 02:50:00,24.2,-0.6
2024/03/01 03:00:00,24.2,-0.6
2024/03/01 03:10:00,24.2,-0.8
2024/03/01 03:20:00,24.1,-0.6
2024/03/01 03:30:00,24.2,-0.8
2024/03/01 03:40:00,24.1,-0.5
2024/03/01 03:50:00,24.1,-0.6
2024/03/01 04:00:00,24.4,-0.6
2024/03/01 04:10:00,24.5,-0.2
2024/03/01 04:20:00,24.2,-0.6
2024/03/01 04:30:00,24.1,-0.7
2024/03/01 04:40:00,24.0,-0.6
2024/03/01 04:50:00,24.0,-0.6
2024/03/01 05:00:00,24.3,-0.7
2024/03/01 05:10:00,24.3,-1.0
2024/03/01 05:20:00,24.5,-0.6
2024/03/01 05:30:00,24.3,-0.4
2024/03/01 05:40:00,24.1,-0.6
2024/03/01 05:50:00,24.2,-1.2
2024/03/01 06:00:00,24.1,-0.8
2024/03/01 06:10:00,24.2,-0.6
2024/03/01 06:20:00,24.4,-0.6
2024/03/01 06:30:00,24.7,-0.8
2024/03/01 06:40:00,24.8,-0.8
2024/03/01 06:50:00,24.8,-0.7
2024/03/01 07:00:00,25.0,-0.6
2024/03/01 07:10:00,24.5,-0.6
2024/03/01 07:20:00,23.9,-0.6
2024/03/01 07:30:00,24.0,-1.0
2024/03/01 07:40:00,24.0,-1.0
2024/03/01 07:50:00,23.9,-0.6
2024/03/01 08:00:00,24.0,-0.2
2024/03/01 08:10:00,24.1, 0.1
2024/03/01 08:20:00,24.1,-0.0
2024/03/01 08:30:00,24.1,-0.3
2024/03/01 08:40:00,24.2, 0.1
2024/03/01 08:50:00,24.2, 0.3
2024/03/01 09:00:00,24.2, 0.1
2024/03/01 09:10:00,24.4, 0.3
2024/03/01 09:20:00,24.5,-0.0
2024/03/01 09:30:00,24.4, 0.1
2024/03/01 09:40:00,24.6, 0.1
2024/03/01 09:50:00,25.2, 0.5
2024/03/01 10:00:00,25.2, 0.8
2024/03/01 10:10:00,25.0, 1.2
2024/03/01 10:20:00,25.0, 1.6
2024/03/01 10:30:00,24.8, 1.7
2024/03/01 10:40:00,24.7, 2.8
2024/03/01 10:50:00,24.7, 3.6
2024/03/01 11:00:00,24.5, 2.2
2024/03/01 11:10:00,24.6, 1.7
2024/03/01 11:20:00,24.6, 2.2
2024/03/01 11:30:00,24.7, 2.5
2024/03/01 11:40:00,24.6, 2.5
2024/03/01 11:50:00,24.6, 2.3
2024/03/01 12:00:00,24.6, 1.8
2024/03/01 12:10:00,24.4, 1.4
2024/03/01 12:20:00,24.7, 2.0
2024/03/01 12:30:00,24.5, 1.8
2024/03/01 12:40:00,24.7, 2.5
2024/03/01 12:50:00,24.6, 2.6
2024/03/01 13:00:00,24.4, 1.8
2024/03/01 13:10:00,24.5, 1.4
2024/03/01 13:20:00,24.7, 1.4
2024/03/01 13:30:00,24.9, 0.9
2024/03/01 13:40:00,24.9, 0.7
2024/03/01 13:50:00,24.9, 0.9
2024/03/01 14:00:00,24.8, 1.1
2024/03/01 14:10:00,24.7, 0.8
2024/03/01 14:20:00,24.6, 1.0
2024/03/01 14:30:00,24.6, 0.8
2024/03/01 14:40:00,24.7, 1.2
2024/03/01 14:50:00,24.9, 1.9
2024/03/01 15:00:00,24.8, 2.3
2024/03/01 15:10:00,24.9, 2.7
2024/03/01 15:20:00,24.7, 1.8
2024/03/01 15:30:00,24.7, 1.9
2024/03/01 15:40:00,24.7, 1.8
2024/03/01 15:50:00,24.7, 1.5
2024/03/01 16:00:00,24.7, 1.5
2024/03/01 16:10:00,24.7, 1.1
2024/03/01 16:20:00,24.7, 1.1
2024/03/01 16:30:00,24.7, 0.7
2024/03/01 16:40:00,24.6, 0.6
2024/03/01 16:50:00,24.6, 0.4
2024/03/01 17:00:00,24.5, 0.1
2024/03/01 17:10:00,24.5,-0.2
2024/03/01 17:20:00,24.5,-0.3
2024/03/01 17:30:00,24.5,-0.6
2024/03/01 17:40:00,24.5,-0.8
2024/03/01 17:50:00,24.5,-1.2
2024/03/01 18:00:00,25.3,-1.8
2024/03/01 18:10:00,26.2,-1.9
2024/03/01 18:20:00,27.3,-2.2
2024/03/01 18:30:00,27.8,-2.4
2024/03/01 18:40:00,28.5,-2.6
2024/03/01 18:50:00,29.1,-2.9
2024/03/01 19:00:00,29.4,-2.9
2024/03/01 19:10:00,29.4,-3.0
2024/03/01 19:20:00,29.3,-3.4
2024/03/01 19:30:00,29.3,-3.4
2024/03/01 19:40:00,29.3,-3.4
2024/03/01 19:50:00,29.3,-3.6
2024/03/01 20:00:00,29.2,-3.7
2024/03/01 20:10:00,29.3,-3.8
2024/03/01 20:20:00,29.3,-3.7
2024/03/01 20:30:00,29.9,-3.8
2024/03/01 20:40:00,30.2,-3.9
2024/03/01 20:50:00,30.5,-4.0
2024/03/01 21:00:00,30.5,-3.7
2024/03/01 21:10:00,30.8,-3.8
2024/03/01 21:20:00,31.4,-3.5
2024/03/01 21:30:00,31.8,-4.1
2024/03/01 21:40:00,32.4,-3.9
2024/03/01 21:50:00,32.6,-4.5
2024/03/01 22:00:00,33.3,-3.9
2024/03/01 22:10:00,34.1,-4.2
2024/03/01 22:20:00,34.8,-4.2
2024/03/01 22:30:00,35.6,-4.3
2024/03/01 22:40:00,36.0,-4.5
2024/03/01 22:50:00,36.3,-4.3
2024/03/01 23:00:00,37.2,-4.3
2024/03/01 23:10:00,38.3,-4.3
2024/03/01 23:20:00,38.9,-4.4
2024/03/01 23:30:00,39.2,-4.2
2024/03/01 23:40:00,39.8,-4.4
2024/03/01 23:50:00,40.5,-4.4
